DW9936 Weather Reports


Display with metric or nautical units.
time (UTC)temp
F
wind
direction
speed
MPH
gust
MPH
rain 1hr
in
rain 24hr
in
rain mn
in
humidity
%
barometer
mb
20260831053048 64 320 0.0 0.0 0.00 0.00 0.00 81 1014.3
20260831051546 64 320 0.0 0.0 0.00 0.00 0.00 82 1014.0
20260831050053 63 320 0.0 0.0 0.00 0.00 0.00 82 1013.8
20260831044543 63 320 0.0 0.0 0.00 0.00 0.00 81 1013.9
20260831043041 63 320 0.0 0.0 0.00 0.00 0.00 81 1014.0
20260831041547 63 320 0.0 0.0 0.00 0.00 0.00 81 1014.0
20260831040049 63 320 0.0 0.0 0.00 0.00 0.00 81 1014.0
20260831034540 63 320 0.0 0.0 0.00 0.00 0.00 80 1013.9
20260831033039 63 320 0.0 0.0 0.00 0.00 0.00 80 1013.8
20260831031538 63 320 0.0 0.0 0.00 0.00 0.00 79 1013.8
20260831030048 63 320 0.0 0.0 0.00 0.00 0.00 78 1013.8
20260831024538 64 320 0.0 0.0 0.00 0.00 0.00 77 1013.7
20260831023036 64 320 0.0 0.0 0.00 0.00 0.00 77 1013.9
20260831021536 63 320 0.0 0.0 0.00 0.00 0.00 78 1013.9
20260831020035 63 320 0.0 0.0 0.00 0.00 0.00 79 1013.9
20260831014537 62 320 0.0 0.0 0.00 0.00 0.00 80 1014.0
20260831013035 62 320 0.0 0.0 0.00 0.00 0.00 80 1014.1
20260831011537 63 320 0.0 0.0 0.00 0.00 0.00 79 1013.9
20260831010030 63 320 0.0 0.0 0.00 0.00 0.00 79 1014.0
20260831004528 63 320 0.0 0.0 0.00 0.00 0.00 79 1014.1
20260831003026 63 320 0.0 0.0 0.00 0.00 0.00 78 1014.2
20260831001528 64 320 0.0 0.0 0.00 0.00 0.00 78 1014.3
20260831000023 64 320 0.0 0.0 0.00 0.00 0.00 77 1014.3
20260830234521 64 320 0.0 0.0 0.00 0.00 0.00 76 1014.4
20260830233027 65 320 0.0 0.0 0.00 0.00 0.00 76 1014.5
20260830231517 65 320 0.0 0.0 0.00 0.00 0.00 75 1014.6
20260830230022 65 320 0.0 0.0 0.00 0.00 0.00 75 1014.7
20260830224513 66 320 0.0 0.0 0.00 0.00 0.00 74 1014.6
20260830223014 66 320 0.0 0.0 0.00 0.00 0.00 73 1014.7
20260830221509 66 320 0.0 0.0 0.00 0.00 0.00 72 1014.7
20260830220015 67 320 0.0 0.0 0.00 0.00 0.00 71 1014.7
20260830214508 67 320 0.0 0.0 0.00 0.00 0.00 70 1014.8
20260830213007 68 320 0.0 0.0 0.00 0.00 0.00 68 1014.7
20260830211507 69 320 0.0 0.0 0.00 0.00 0.00 67 1014.7
20260830210015 70 320 0.0 0.0 0.00 0.00 0.00 65 1014.6
20260830204506 70 320 0.0 0.0 0.00 0.00 0.00 63 1014.6
20260830203005 71 320 0.0 0.0 0.00 0.00 0.00 62 1014.5
20260830201504 71 320 0.0 0.0 0.00 0.00 0.00 61 1014.6
20260830200004 72 320 0.0 0.0 0.00 0.00 0.00 61 1014.6
20260830194505 72 320 0.0 0.0 0.00 0.00 0.00 60 1014.5
20260830193003 73 320 0.0 0.0 0.00 0.00 0.00 58 1014.6
20260830191510 74 320 0.0 2.0 0.00 0.00 0.00 57 1014.4
20260830190002 74 330 0.0 0.0 0.00 0.00 0.00 57 1014.4
20260830184502 74 330 0.0 0.0 0.00 0.00 0.00 55 1014.4
20260830183002 76 330 0.0 0.0 0.00 0.00 0.00 53 1014.2
20260830181500 77 330 0.0 0.0 0.00 0.00 0.00 50 1013.9
20260830180000 78 325 0.0 1.0 0.00 0.00 0.00 48 1013.7
20260830174605 80 325 0.0 0.0 0.00 0.00 0.00 46 1013.5
20260830173103 82 325 0.0 0.0 0.00 0.00 0.00 43 1013.5
20260830171603 83 325 0.0 1.0 0.00 0.00 0.00 41 1013.4
20260830170059 84 336 0.0 1.0 0.00 0.00 0.00 39 1013.4
20260830164558 85 329 0.0 3.0 0.00 0.00 0.00 38 1013.3
20260830163058 86 333 0.0 3.0 0.00 0.00 0.00 36 1013.3
20260830161605 86 337 0.0 9.0 0.00 0.00 0.00 35 1013.4
20260830160057 87 325 0.0 5.0 0.00 0.00 0.00 37 1013.5
20260830154604 87 249 0.0 2.0 0.00 0.00 0.00 37 1013.5
20260830153056 87 355 0.0 3.0 0.00 0.00 0.00 36 1013.5
20260830151556 88 207 0.0 3.0 0.00 0.00 0.00 36 1013.5
20260830150053 88 248 0.0 4.0 0.00 0.00 0.00 36 1013.6
20260830144605 89 196 1.0 7.0 0.00 0.00 0.00 36 1013.7
20260830143050 88 238 0.0 6.0 0.00 0.00 0.00 38 1013.8
20260830141549 88 217 0.0 5.0 0.00 0.00 0.00 36 1013.9
20260830140054 88 232 1.0 5.0 0.00 0.00 0.00 36 1014.1
20260830134545 87 344 0.0 6.0 0.00 0.00 0.00 38 1014.2
20260830133058 85 217 0.0 3.0 0.00 0.00 0.00 40 1014.4
20260830131552 86 194 0.0 7.0 0.00 0.00 0.00 40 1014.6
20260830130055 86 234 1.0 5.0 0.00 0.00 0.00 38 1014.7
20260830124538 87 229 1.0 8.0 0.00 0.00 0.00 38 1014.7
20260830123037 86 59 0.0 5.0 0.00 0.00 0.00 39 1014.9
20260830121533 85 194 0.0 5.0 0.00 0.00 0.00 40 1015.1
20260830120044 84 215 1.0 7.0 0.00 0.00 0.00 41 1015.2
20260830114533 85 218 1.0 7.0 0.00 0.00 0.00 40 1015.3
20260830113029 85 327 0.0 9.0 0.00 0.00 0.00 40 1015.4
20260830111532 85 184 0.0 5.0 0.00 0.00 0.00 40 1015.5
20260830110025 85 242 3.0 7.0 0.00 0.00 0.00 40 1015.7
20260830104526 85 184 1.0 6.0 0.00 0.00 0.00 40 1015.7
20260830103028 84 167 1.0 7.0 0.00 0.00 0.00 40 1015.9
20260830101522 84 296 0.0 5.0 0.00 0.00 0.00 40 1015.9
20260830100029 84 126 0.0 6.0 0.00 0.00 0.00 40 1016.1
20260830094531 84 224 0.0 5.0 0.00 0.00 0.00 41 1016.2
20260830093028 82 306 0.0 3.0 0.00 0.00 0.00 45 1016.3
20260830091519 82 355 0.0 3.0 0.00 0.00 0.00 47 1016.6
20260830090009 80 103 0.0 3.0 0.00 0.00 0.00 54 1016.6
20260830084507 79 74 0.0 3.0 0.00 0.00 0.00 55 1016.7
20260830083004 78 96 0.0 3.0 0.00 0.00 0.00 55 1016.9
20260830081558 76 121 0.0 3.0 0.00 0.00 0.00 57 1016.9
20260830080055 74 107 0.0 2.0 0.00 0.00 0.00 60 1017.0
20260830074550 72 240 0.0 3.0 0.00 0.00 0.00 64 1017.0
20260830073050 71 109 0.0 1.0 0.00 0.00 0.00 65 1017.0
20260830071549 71 109 0.0 2.0 0.00 0.00 0.00 65 1017.0
20260830070105 70 113 0.0 1.0 0.00 0.00 0.00 64 1016.9
20260830064538 69 338 0.0 1.0 0.00 0.00 0.00 67 1016.8
20260830063036 67 338 0.0 1.0 0.00 0.00 0.00 70 1016.8
20260830061531 65 337 0.0 1.0 0.00 0.00 0.00 74 1016.8
20260830060041 63 325 0.0 0.0 0.00 0.00 0.00 78 1016.7
20260830054521 60 325 0.0 0.0 0.00 0.00 0.00 83 1016.7